Location: Ari Ou Faoud
(32.8140°N, 5.3839°W)
Time: 01:47:35
(UTC+00:00)

Daily predictions for brighter satellites

Satellite Brightness Start Highest point End
(mag) Time Altitude Azimuth Time Altitude Azimuth Time Altitude Azimuth
Cosmos 2333 Rocket 4.2 03:17:32 24° ENE 03:17:32 24° ENE 03:20:29 10° NE
ATLAS 2AS CENTAUR R/B 4.4 03:13:54 27° SE 03:16:08 32° ESE 03:22:59 10° NE
Cosmos 2219 Rocket 2.9 03:53:56 48° NE 03:53:56 48° NE 03:58:02 10° NNE
Cosmos 2237 Rocket 4.2 03:53:38 10° SSE 03:58:10 25° ESE 04:02:43 10° NE
Cosmos 1025 Rocket 4.5 04:05:35 35° E 04:05:35 35° E 04:09:18 10° NNE
COSMOS 2428 3.0 04:07:23 61° NNE 04:07:23 61° NNE 04:12:00 10° NNE
COSMOS 2455 4.1 04:10:25 29° N 04:10:25 29° N 04:13:39 10° NNE
Cosmos 1536 Rocket 4.4 04:18:24 43° NE 04:18:24 43° NE 04:21:31 10° NNE
CZ-2C R/B 3.5 04:16:58 10° NNE 04:21:58 46° E 04:26:52 10° S
Cosmos 2360 Rocket 4.4 04:26:53 12° NNW 04:26:53 12° NNW 04:27:22 10° NNW
Cosmos 1733 4.5 04:20:26 10° N 04:24:05 40° E 04:27:42 10° SSE
IDEFIX/ARIANE 42P 3.2 04:21:16 10° N 04:24:48 41° NNW 04:24:48 41° NNW
NOSS 3-4 (A) 3.8 04:22:52 23° S 04:26:32 58° ESE 04:32:33 10° NE
NOSS 3-4 (C) 3.9 04:22:49 22° S 04:26:37 57° ESE 04:32:39 10° NE
USA 234 3.4 04:23:48 10° SE 04:30:17 70° NE 04:35:02 20° NW
PAYLOAD A 3.8 04:36:24 10° NNE 04:41:15 87° WNW 04:46:17 10° SSW
Cosmos 1992 Rocket 3.9 04:36:53 10° NNW 04:42:07 86° ENE 04:47:19 10° SSE
Fregat R/B Cluster 11 4.0 04:44:02 53° NNE 04:44:02 53° NNE 04:47:54 10° NNE
Cosmos 614 Rocket 4.4 04:38:45 10° S 04:43:53 62° ESE 04:49:03 10° NNE
Aureole 1 Rocket 4.2 04:43:38 39° WSW 04:45:25 48° WNW 04:51:00 10° N
SL-16 R/B 4.5 04:44:38 10° SSE 04:49:05 24° ESE 04:53:34 10° NE
CZ-4B R/B 3.0 04:45:43 10° NNE 04:49:43 68° E 04:53:29 10° S
Cosmos 1844 Rocket 2.8 04:48:52 42° WNW 04:49:54 47° WSW 04:55:11 10° S
Delta 142 3.9 04:53:19 41° SW 04:54:09 46° S 04:58:05 10° ESE
Cosmos 2184 Rocket 4.0 04:48:18 10° S 04:54:28 87° E 05:00:44 10° N
Cosmos 2333 Rocket 3.0 04:59:36 30° WNW 04:59:45 30° WNW 05:04:42 10° N
Meteor 1-22 Rocket 4.2 04:55:03 10° NNW 05:00:08 48° W 05:05:10 10° SSW
Meteor 1-21 4.2 04:55:27 10° SSW 05:00:54 55° W 05:06:23 10° N
MSX 4.1 04:59:20 10° N 05:04:41 42° WNW 05:09:53 11° SW
ATLAS 2AS CENTAUR R/B 3.2 05:01:26 21° WSW 05:06:48 52° NW 05:14:40 10° NNE
Cosmos 2278 Rocket 3.1 05:01:39 10° N 05:07:09 49° ENE 05:12:37 10° SE
GPS 2-05 Rocket1 2.1 05:08:02 72° SSW 05:08:05 72° SSW 05:10:50 10° ESE
IUS-9 SRM-1 3.1 05:07:40 21° S 05:08:19 24° SSE 05:12:08 10° ESE
Cosmos 1844 4.1 05:06:07 12° NW 05:11:02 40° WSW 05:16:20 10° S
CENTAUR R/B 4.3 05:04:04 10° NNW 05:11:50 44° NE 05:20:01 10° ESE
COSMO-SKYMED 1 4.3 05:10:51 10° SE 05:14:48 36° ENE 05:18:46 10° N
Cosmos 1953 3.5 05:11:03 10° N 05:14:56 46° E 05:18:46 10° SSE
PSLV R/B 3.7 05:11:18 10° NNE 05:15:01 80° ESE 05:18:42 10° S
USA 238 DEB 3.8 05:10:22 10° NNW 05:17:41 82° WSW 05:25:09 10° SSE
USA 238 3.8 05:10:29 10° NNW 05:17:47 83° WSW 05:25:15 10° SSE
Meteor 1-4 Rocket 2.6 05:16:22 10° S 05:19:55 78° E 05:23:26 10° N
Cosmos 1190 Rocket 4.0 05:15:15 10° SSW 05:20:29 63° WNW 05:25:45 10° N
Cosmos 1758 3.2 05:17:01 10° N 05:21:00 73° W 05:25:00 10° S
Cosmos 407 Rocket 3.6 05:19:30 10° SW 05:24:29 49° WNW 05:29:28 10° N
SeaSat 1 4.1 05:24:02 10° NE 05:28:35 37° ESE 05:33:08 10° S
RESURS DK-1 3.2 05:25:14 10° S 05:29:15 53° ESE 05:33:17 10° NNE
Cosmos 2074 Rocket 4.3 05:24:06 10° SSW 05:30:00 44° W 05:35:56 10° N
SJ-12 4.2 05:26:39 10° NNE 05:30:44 71° E 05:34:49 10° S
Milstar 3 Cent rocket 3.3 05:27:54 10° SW 05:32:38 31° SSE 05:36:43 10° ESE
H-2A R/B 4.2 05:31:05 10° NW 05:33:02 15° WNW 05:33:02 15° WNW
BREEZE-M DEB (TANK) 3.7 05:27:41 12° WSW 05:34:59 50° NW 05:38:10 10° NE
Okean O Rocket 2.4 05:31:30 10° NNE 05:35:51 57° E 05:40:08 10° S
Cosmos 2219 Rocket 3.7 05:35:43 14° WNW 05:36:54 14° WNW 05:39:53 10° NNW
Cosmos 1726 Rocket 4.1 05:34:38 10° N 05:38:55 61° E 05:43:09 10° SSE
ERBS 4.4 05:39:29 12° NW 05:40:11 12° NW 05:41:42 10° NNW
Cosmos 2237 Rocket 2.8 05:36:48 10° SW 05:41:57 36° WNW 05:47:10 10° N
PAYLOAD B 4.2 05:38:56 10° NNE 05:44:31 86° WNW 05:50:02 10° SSW
CZ-4B DEB 4.1 05:39:09 10° N 05:44:37 76° WNW 05:50:02 10° SSW
NOSS 3-2 (A) 4.2 05:36:49 10° NW 05:44:40 66° WSW 05:53:08 10° SSE
Cosmos 1295 Rocket 4.5 05:38:58 10° S 05:45:12 82° W 05:51:23 10° N
Meteor 1-31 Rocket 4.1 05:44:38 10° NNW 05:47:17 18° WNW 05:49:56 10° WSW
Cosmos 2058 Rocket 4.1 05:45:48 10° N 05:50:06 52° E 05:54:25 10° SSE
Cosmos 2228 3.0 05:46:04 10° N 05:50:20 88° W 05:54:34 10° S
Cosmos 389 Rocket 3.7 05:49:18 10° SW 05:51:55 20° WNW 05:54:32 10° NNW
COBE Rocket 3.9 05:47:46 10° S 05:52:40 74° W 05:57:44 10° NNW
In-Cosmos 22 4.1 05:51:03 10° SSW 05:56:17 66° W 06:01:38 10° N
Cosmos 1707 4.0 05:53:24 10° SW 05:56:23 21° WNW 05:59:24 10° NNW
Cosmos 1470 3.8 05:53:41 10° NW 05:56:49 24° W 05:59:57 10° SW
BREEZE-M DEB (TANK) 2.4 05:54:53 10° WNW 05:57:58 30° SW 05:59:57 10° SSE
CZ-2C R/B 3.9 05:56:22 10° NNW 05:59:45 18° WNW 06:03:05 10° WSW
Cosmos 1954 Rocket 4.2 05:54:50 10° SW 05:59:54 49° WNW 06:04:59 10° N
BREEZE-M DEB (TANK) 4.5 05:59:09 10° NNW 06:00:58 19° NE 06:03:20 10° E
Cosmos 921 Rocket 4.0 05:58:06 10° NW 06:01:35 25° W 06:05:01 10° SSW
SKYMED 2 3.7 05:58:28 10° S 06:02:43 57° W 06:07:00 10° NNW
Cosmos 1484 Rocket 3.7 06:01:50 10° NNW 06:05:04 27° WNW 06:08:19 10° SW
NOSS 3-2 (C) 4.2 05:58:44 10° NW 06:06:39 71° WSW 06:15:10 10° SSE
